Salem, OR

9:23 PM PST on December 03, 2016 (GMT -0800)
McNary

Weather History for KSLE - July, 2014

Change the Weather History Date:

Tuesday, July 29, 2014

  Actual Average Record
Temperature  
Mean Temperature 77 °F 69 °F  
Max Temperature 94 °F 84 °F 106 °F (2009)
Min Temperature 59 °F 54 °F 42 °F (1929)
Degree Days  
Heating Degree Days 0 0  
Month to date heating degree days 3 30  
Since 1 June heating degree days 69 160  
Since 1 July heating degree days 3 30  
Cooling Degree Days 12 4  
Month to date cooling degree days 220 97  
Year to date cooling degree days 255 134  
Since 1 June cooling degree days 239 125  
Growing Degree Days 26 (Base 50)    
Moisture  
Dew Point 54 °F    
Average Humidity 54    
Maximum Humidity 84    
Minimum Humidity 23    
Precipitation  
Precipitation 0.00 in 0.01 in 0.17 in (2001)
Month to date precipitation 0.46 0.44  
Year to date precipitation 22.47 21.53  
Sea Level Pressure  
Sea Level Pressure 30.05 in    
Wind  
Wind Speed 6 mph (NNW)    
Max Wind Speed 15 mph    
Max Gust Speed 24 mph    
Visibility 10 miles    
Events      
T = Trace of Precipitation, MM = Missing Value Source: NWS Daily Summary

Daily Weather History Graph

Daily Weather History Graph

Search for Another Location

Airport or City:

Trip Planner

Search our weather history database for the weather conditions in past years. The results will help you decide how hot, cold, wet, or windy it might be!

Date:

Astronomy

Jul. 29, 2014 Rise Set
Actual Time 5:54 AM PDT 8:41 PM PDT
Civil Twilight 5:20 AM PDT 9:15 PM PDT
Nautical Twilight 4:37 AM PDT 9:58 PM PDT
Astronomical Twilight 3:46 AM PDT 10:48 PM PDT
Moon 8:45 AM PDT (7/29) 9:46 PM PDT (7/29)
Length of Visible Light 15h 55m
Length of Day
14h 47m
Waxing Crescent, 7% of the Moon is Illuminated
Jul 29
Waxing Crescent
Aug 3
First Quarter
Aug 10
Full
Aug 17
Last Quarter
Aug 25
New

Hourly Weather History & Observations

Time (PDT) Temp. Heat Index Dew Point Humidity Pressure Visibility Wind Dir Wind Speed Gust Speed Precip Events Conditions
12:56 AM 70.0 °F - 55.9 °F 61% 30.04 in 10.0 mi North 5.8 mph - N/A   Clear
1:56 AM 66.0 °F - 55.0 °F 68% 30.04 in 10.0 mi Calm Calm - N/A   Clear
2:56 AM 63.0 °F - 55.9 °F 78% 30.05 in 10.0 mi Calm Calm - N/A   Clear
3:56 AM 64.0 °F - 55.9 °F 75% 30.05 in 10.0 mi Calm Calm - N/A   Clear
4:56 AM 61.0 °F - 55.0 °F 81% 30.07 in 10.0 mi Calm Calm - N/A   Clear
5:56 AM 60.1 °F - 54.0 °F 80% 30.08 in 10.0 mi Calm Calm - N/A   Clear
6:56 AM 63.0 °F - 55.9 °F 78% 30.09 in 10.0 mi NW 3.5 mph - N/A   Clear
7:56 AM 69.1 °F - 54.0 °F 58% 30.10 in 10.0 mi North 4.6 mph - N/A   Clear
8:56 AM 72.0 °F - 53.1 °F 51% 30.10 in 10.0 mi NE 6.9 mph - N/A   Clear
9:56 AM 73.9 °F - 53.1 °F 48% 30.10 in 10.0 mi Calm Calm - N/A   Clear
10:56 AM 78.1 °F - 51.1 °F 39% 30.09 in 10.0 mi NNW 4.6 mph - N/A   Clear
11:56 AM 82.9 °F - 52.0 °F 34% 30.07 in 10.0 mi North 8.1 mph - N/A   Clear
12:56 PM 84.9 °F 83.2 °F 53.1 °F 33% 30.06 in 10.0 mi North 9.2 mph - N/A   Clear
1:56 PM 89.1 °F - 52.0 °F 28% 30.04 in 10.0 mi North 10.4 mph - N/A   Clear
2:56 PM 91.0 °F - 51.1 °F 25% 30.03 in 10.0 mi North 9.2 mph - N/A   Clear
3:56 PM 93.0 °F - 50.0 °F 23% 30.01 in 10.0 mi North 12.7 mph 18.4 mph N/A   Clear
4:56 PM 93.9 °F - 50.0 °F 22% 29.99 in 10.0 mi North 10.4 mph - N/A   Clear
5:56 PM 91.9 °F 90.3 °F 55.9 °F 30% 29.99 in 10.0 mi WNW 10.4 mph - N/A   Clear
6:56 PM 88.0 °F 87.1 °F 59.0 °F 37% 29.99 in 10.0 mi WNW 10.4 mph - N/A   Clear
7:56 PM 82.0 °F 82.0 °F 57.9 °F 44% 30.01 in 10.0 mi West 8.1 mph - N/A   Clear
8:56 PM 77.0 °F - 55.9 °F 48% 30.03 in 10.0 mi West 5.8 mph - N/A   Clear
9:56 PM 73.0 °F - 55.0 °F 53% 30.05 in 10.0 mi West 4.6 mph - N/A   Clear
10:56 PM 69.1 °F - 55.9 °F 63% 30.06 in 10.0 mi North 5.8 mph - N/A   Clear
11:56 PM 66.9 °F - 55.0 °F 66% 30.06 in 10.0 mi North 5.8 mph - N/A   Clear